COSMOS 2251 DEB, 34998

Orbit data source: Space-Track

COSMOS 2251 DEB, 34998 is space debris in LEO originally from a launch on Wed, 16 Jun 1993 UTC launched from the Plesetsk Missile And Space Complex (PKMTR). The debris from Iridium 33, an American commercial communications satellite, has been tracked extensively since its accidental collision with the defunct Russian satellite Cosmos 2251 in 2009. This event, occurring at high speed in low Earth orbit (LEO), generated thousands of pieces of space debris, significantly increasing the risk of further collisions. The Iridium 33 debris cloud has impacted space traffic management and orbital debris mitigation strategies, making it a subject of ongoing study in space situational awareness.

Loading next visibility...
Identifier
34998, 1993-036AFW
Orbit
LEO
Country
Flag of CISCIS
Related business
Manufacturer
Unknown
Mission
Spacecraft
Bus & Motor
Unknown
Mass
Unknown
Launch date (UTC)
1993-06-16 (33 years ago)
Launch vehicle
Unknown
Launch site
Plesetsk Missile And Space Complex (PKMTR)
Object type
Payload
Rocket body
Debris
Shape & HBR
Unknown shape, 0.1 m
Radar Cross Section
Small (<0.1 m²)

Expand to show TLE details & history
Last TLE update: 6 hours ago

TLE from 6 hours ago
0 COSMOS 2251 DEB
1 34998U 93036AFW 26238.49072897  .00001540  00000-0  40209-3 0  9999
2 34998  74.0099  37.2316 0020024 121.0789 298.7255 14.50197460911413
Epoch: 2026-08-26T11:46Z
TLE epoch observation values (Epoch: 2026-08-26T11:46:38.983Z)
Latitude
56.12234°
Longitude
-89.05379°
Altitude
727.195 km
Speed
7.501 km/s
True Right ascension
04h 09m 24s
True Declination
55° 57' 44"
Sunlit
Object was in daylight at epoch
Visualization orbit readout
Latitude
Unknown
Longitude
Unknown
Altitude
Unknown
Speed
Unknown
Apparent Right ascension
Unknown
Apparent Declination
Unknown
Sunlit
N/A
Visualization observer readout
Local Sidereal Time
09:34:11
Azimuth
Unknown
Elevation
Unknown
Doppler factor
Unknown
Orbital elements
Apogee altitude
736.833 km
Perigee altitude
708.396 km
Semi-major axis
7,100.751 km
Eccentricity
0.002
Inclination
74.0099°
RAAN
37.2316°
Arg. of periapsis
121.0789°
True anomaly
298.52404°
Mean anomaly
298.7255°
Eccentric anomaly
298.62479°
Mean motion
3.62733 °/min
Orbital period
99.25 mins
BSTAR
0.00040209
Loading maneuver chart data...
Computing Atmospheric mass density...

Documentation

Showing up to 5 results
|